Location: Sihaung
(22.8641°N, 94.0549°E)
Time: 11:42:40
(UTC+00:00)

NOSS 3-4 (A) - Pass Details

Date: 03 March 2021
Orbit: 866 x 1346 km, 63.4° (Epoch: 13 April)

Event Time Altitude Azimuth Distance (km) Brightness Sun altitude
Exits shadow 22:50:09 - 213° (SSW) 2,728 5.5 -17.5°
Reaches altitude 10° 22:50:44 10° 214° (SW) 2,507 5.3 -17.4°
Maximum altitude 22:56:26 69° 297° (WNW) 925 3.2 -16.1°
Drops below altitude 10° 23:02:15 10° 21° (NNE) 2,559 6.0 -14.8°
Sets 23:04:50 0° 23° (NNE) 3,542 6.7 -14.2°
